Voltar ao catálogo

BREEZE-M DEB

TANK

AtivoHEO
NORAD 42944·DEBRIS·🇷🇺 Russia

Lançado Sep 28, 2017 de Baikonur Cosmodrome

Loading…

Próximas Passagens (próximas 24 horas)

TLE

AtualizadoSource: Space-Track

Época: Sep 13, 2026, 08:08 UTC

1 42944U 17057C   26256.33925855  .00003402  00000-0  89953-3 0  9990
2 42944  49.6359 244.3737 5101115   9.5515 357.3112  5.41846531172931

Acompanhe BREEZE-M DEB em tempo real com AllMySat

Download on the App Store